カタログに戻る

ONEWEB-0589

運用中通信PO
NORAD 54655·PAYLOAD·🇬🇧 United Kingdom

打ち上げ Dec 8, 2022 から Cape Canaveral Space Force Station

Loading…

次のパス (今後24時間)

TLE

最新Source: CelesTrak SupGP

元期: Sep 14, 2026, 18:04 UTC

1 54655C 22166P   26257.75326806  .00003066  00000+0  74333-2 0  2574
2 54655  87.9277 226.1483 0002697  98.2599 297.9461 13.21824123    15

AllMySatでONEWEB-0589をリアルタイム追跡

Download on the App Store